Wind_Speed
19 19 19 19 19 19 20 20 20 20 20 21 21 21 21 21 21 21 20 20 20 20 20 20 20 20 21 21 21 21 22 22 23 23 23 23 23 23 24 24 25 25 26
21 21 20 20 20 20 21 21 20 20 21 21 22 22 22 21 21 21 21 21 21 22 22 22 22 22 22 22 22 22 22 22 22 22 23 24 24 24 24 24 25 25 26
22 22 22 22 22 22 22 22 22 22 22 22 22 23 22 22 22 22 22 22 22 23 23 23 23 23 23 22 22 22 22 22 23 23 24 25 25 25 25 25 25 26 26
22 22 23 23 23 24 23 23 22 23 23 23 23 23 23 22 23 23 23 23 23 23 24 24 24 23 23 23 24 24 24 24 25 25 26 27 27 27 27 28 28 28 28
23 23 23 24 24 24 24 24 24 24 23 23 23 23 23 23 23 23 23 24 24 24 24 24 24 24 24 25 25 26 26 27 27 27 28 28 29 29 29 30 30 30 30
24 24 25 25 25 25 25 25 25 25 24 24 24 24 24 24 24 25 24 24 25 25 24 24 24 25 26 27 27 27 28 28 28 29 29 30 29 30 31 32 31 31 31
25 25 26 27 27 26 26 26 26 26 26 26 25 25 25 26 26 26 26 27 27 26 26 25 25 26 27 27 28 28 29 30 30 30 31 31 31 31 32 31 30 30 29
26 26 27 27 27 28 27 27 27 27 27 27 27 26 27 27 28 28 28 28 28 27 26 26 26 27 28 28 29 29 30 31 32 32 32 32 32 32 32 32 31 31 30
28 28 28 28 28 28 28 28 28 28 28 28 28 28 28 28 28 29 30 29 28 27 27 27 27 27 28 29 30 30 31 31 31 32 32 32 33 33 33 33 32 32 31
29 30 30 30 30 30 30 30 30 29 29 29 29 29 29 29 30 30 30 29 28 28 28 28 28 28 29 30 30 30 30 30 31 31 32 33 33 33 33 34 33 33 33
31 32 32 32 32 32 32 31 30 30 30 30 30 30 30 31 31 31 30 29 29 29 29 28 28 29 29 30 30 30 31 31 32 32 33 33 33 33 33 33 33 33 32
33 33 33 33 33 33 33 32 31 31 31 31 31 31 32 31 31 30 30 30 29 29 29 29 29 30 30 30 30 31 31 32 32 33 33 32 32 32 32 32 32 32 32
34 34 33 33 33 33 33 34 34 33 33 33 32 32 32 32 31 31 30 30 30 30 30 31 31 31 31 31 31 31 32 32 33 33 32 32 32 31 31 31 31 31 31
34 34 34 34 34 33 34 35 35 34 35 34 33 32 32 32 32 31 31 31 32 31 31 32 32 32 32 32 32 32 33 33 33 33 32 32 32 31 31 30 30 30 30
34 34 34 34 35 35 35 35 35 34 34 34 33 33 32 32 32 31 31 32 32 32 32 32 32 32 32 32 32 33 33 33 33 33 32 32 32 31 30 29 29 29 29
35 34 35 35 35 36 36 35 35 35 35 34 34 34 34 33 32 32 32 32 32 32 32 32 32 31 31 32 32 32 32 32 32 32 31 31 31 30 29 29 28 28 27
35 36 36 36 36 36 36 35 35 34 34 34 34 34 34 33 32 32 33 33 33 33 32 31 32 32 32 31 31 32 32 32 32 32 31 30 29 29 29 28 28 27 27
35 36 36 36 35 35 35 35 35 35 34 34 35 34 34 33 33 33 33 33 33 32 31 31 30 30 30 31 31 31 31 31 31 31 30 29 29 28 28 27 27 26 26
36 36 35 35 34 34 34 34 34 33 33 33 33 33 33 32 32 31 31 32 32 31 30 29 29 29 29 29 29 29 29 29 28 28 27 27 27 27 26 26 25 25 25
36 35 35 34 34 33 33 33 33 33 33 32 33 32 32 31 31 31 31 30 30 30 29 29 29 29 29 28 28 28 28 28 27 26 26 25 25 25 25 24 24 24 24
35 35 35 34 34 33 33 33 33 33 32 32 32 32 31 30 30 30 30 29 29 29 29 28 28 29 28 28 28 28 28 27 26 26 25 24 24 24 24 24 23 23 23
34 34 34 34 34 34 33 33 33 33 32 32 31 31 30 30 30 30 30 29 29 28 28 28 29 29 29 29 28 28 27 26 26 25 24 23 23 23 23 23 23 23 23
33 33 33 33 33 33 33 33 33 32 31 30 29 29 29 29 28 28 28 28 28 29 29 28 28 28 29 29 28 28 27 26 25 25 24 24 24 24 24 23 23 23 23
32 31 31 32 32 32 32 32 32 31 31 30 29 28 28 27 27 27 26 27 28 29 28 28 28 28 28 28 27 26 26 25 25 24 24 24 24 24 24 24 23 23 23
30 29 29 30 30 31 31 30 30 29 29 29 29 28 28 27 27 27 27 27 27 28 28 28 28 28 28 27 26 25 25 25 24 24 24 24 23 23 23 22 22 23 23
28 27 27 28 28 29 29 29 29 28 28 28 28 28 27 27 27 27 27 27 27 28 28 28 28 28 27 27 26 25 24 23 23 23 23 23 23 22 22 22 22 22 22
Wind_Direction
276 276 276 278 281 284 286 287 289 290 291 293 295 295 295 295 294 293 292 291 289 289 290 290 288 285 282 281 279 277 276 274 271 271 271 272 271 271 271 270 269 268 268
274 276 277 279 280 282 286 286 287 289 291 292 293 293 294 294 293 292 292 291 290 289 289 288 287 285 282 281 279 277 277 275 273 271 271 272 273 273 273 272 271 270 270
275 275 276 278 280 282 283 285 286 287 289 290 292 291 292 293 293 292 291 292 290 289 289 288 286 284 281 279 279 276 276 276 275 273 272 272 274 275 275 273 272 272 272
273 274 275 277 279 281 282 283 285 286 287 288 290 291 292 292 292 290 290 290 291 291 290 288 286 284 281 280 279 278 277 277 276 275 274 274 274 275 274 274 273 273 273
273 274 276 277 279 280 282 282 284 285 288 290 290 291 292 292 292 291 291 291 291 291 290 288 286 284 282 281 281 280 278 277 277 276 276 276 275 275 275 274 274 273 274
273 274 275 276 278 280 280 281 282 284 288 289 289 290 291 291 292 292 293 293 292 291 289 287 286 285 285 284 283 282 280 279 278 277 276 276 276 276 276 275 275 274 274
272 273 274 276 278 279 280 281 282 284 286 287 288 289 289 289 290 291 291 292 291 290 287 286 286 286 285 285 284 283 282 280 280 279 279 278 277 277 277 276 275 274 274
273 274 275 276 276 278 279 280 281 284 285 286 287 288 289 290 289 290 291 291 290 288 287 286 286 286 285 285 284 284 283 282 281 280 279 279 278 277 277 276 274 274 274
274 275 276 277 278 278 278 279 281 283 285 286 285 286 287 289 289 289 290 290 289 287 287 287 287 287 286 286 285 284 283 283 282 281 282 281 280 279 276 274 273 273 272
273 273 275 275 276 276 276 278 280 281 283 285 285 285 287 288 288 289 289 288 287 287 286 287 288 288 287 288 287 285 284 284 284 283 283 282 280 279 278 275 274 273 271
272 272 273 273 274 274 275 277 278 279 281 283 284 285 285 286 286 286 287 287 286 286 285 286 287 288 289 289 287 286 286 286 285 285 284 282 281 279 277 275 274 273 271
273 273 273 273 273 273 273 275 276 278 279 282 283 284 284 284 283 283 284 285 286 286 286 286 287 287 289 290 288 288 288 289 286 285 284 282 281 280 277 276 274 272 269
272 272 273 274 274 274 274 275 276 276 278 280 282 283 282 282 282 281 282 284 285 285 285 287 287 287 288 288 289 289 289 288 287 285 284 284 282 281 279 277 275 273 270
272 272 272 273 274 275 275 276 276 276 277 278 279 280 281 282 281 281 281 283 284 284 284 286 287 287 286 288 289 289 289 287 287 285 283 283 283 281 279 277 276 274 271
272 272 272 272 273 274 275 277 276 276 277 277 278 280 280 281 281 281 282 283 284 284 286 287 287 286 286 286 287 288 288 287 287 287 284 283 282 280 279 277 275 274 271
271 272 273 273 273 273 274 276 277 277 278 278 278 278 279 279 279 280 281 282 285 286 287 288 287 287 287 287 287 287 287 287 287 287 284 282 281 279 277 275 275 273 270
272 271 272 273 273 274 275 275 276 276 276 278 279 279 278 277 279 280 279 281 284 286 287 288 289 288 288 287 287 287 287 287 287 286 284 282 280 278 275 273 273 272 269
272 272 272 272 272 273 273 274 275 275 276 276 278 279 279 278 278 279 281 281 283 284 286 287 288 288 289 289 288 287 287 286 286 285 283 282 281 279 275 272 271 269 267
272 272 273 272 272 272 273 273 275 276 278 277 278 278 278 278 278 278 280 281 282 283 284 286 287 289 290 290 289 289 289 288 287 286 284 283 281 278 275 272 270 269 266
273 273 272 272 272 272 273 275 275 276 277 278 280 279 277 278 278 278 280 281 282 282 283 284 287 288 289 289 289 290 290 288 286 286 285 284 283 280 276 272 270 269 266
272 272 271 271 271 272 273 274 275 276 277 278 279 278 276 277 278 277 278 279 281 282 283 284 285 287 288 288 289 289 289 287 285 284 282 282 281 279 276 273 271 269 266
272 271 270 269 270 271 273 274 274 276 277 278 279 277 276 277 278 276 276 278 280 281 283 284 285 286 287 288 289 288 287 286 284 281 281 280 280 277 275 272 270 269 268
274 273 272 271 271 271 272 273 274 275 276 277 276 277 277 278 278 277 277 277 280 282 282 283 284 285 287 287 288 287 286 284 282 280 280 278 278 278 276 274 273 271 268
274 273 273 272 273 273 272 272 274 274 274 275 277 278 277 276 277 277 277 279 282 284 283 282 283 285 286 286 287 286 285 283 281 280 280 279 277 276 275 273 272 271 269
275 274 273 273 273 273 272 272 272 272 274 275 276 277 276 276 277 278 278 281 283 285 284 282 282 284 285 286 286 285 283 282 281 281 280 279 277 275 273 271 271 270 269
275 275 275 274 273 272 273 272 272 273 274 275 274 274 275 276 278 278 279 281 283 285 285 283 282 283 283 283 283 283 282 281 281 280 278 277 277 276 274 272 271 271 270
Height
5795 5795 5795 5795 5795 5794 5793 5793 5792 5791 5790 5789 5788 5787 5785 5784 5783 5782 5781 5780 5779 5778 5777 5776 5775 5775 5774 5773 5773 5773 5773 5773 5773 5774 5774 5774 5774 5774 5774 5775 5775 5775 5776
5790 5790 5790 5790 5790 5789 5788 5788 5787 5786 5785 5784 5783 5782 5780 5779 5778 5777 5776 5775 5774 5773 5772 5771 5770 5769 5769 5768 5767 5767 5766 5766 5767 5767 5768 5768 5768 5768 5768 5768 5768 5768 5768
5785 5785 5785 5785 5784 5784 5783 5783 5782 5781 5780 5779 5778 5776 5775 5774 5773 5772 5771 5769 5769 5767 5766 5765 5764 5763 5763 5762 5762 5761 5761 5761 5761 5761 5761 5761 5761 5761 5761 5761 5761 5761 5761
5779 5779 5779 5779 5779 5778 5777 5777 5776 5775 5774 5773 5772 5771 5770 5769 5767 5766 5765 5764 5763 5762 5760 5759 5758 5757 5757 5756 5756 5755 5755 5755 5754 5755 5755 5754 5754 5754 5754 5754 5754 5753 5753
5773 5773 5773 5773 5772 5772 5772 5771 5770 5770 5769 5768 5767 5766 5764 5763 5762 5760 5759 5758 5757 5756 5754 5753 5752 5751 5750 5750 5749 5749 5748 5748 5748 5747 5747 5747 5747 5746 5746 5746 5745 5745 5744
5767 5767 5766 5766 5766 5766 5765 5765 5764 5764 5763 5762 5761 5760 5758 5757 5756 5754 5753 5752 5750 5749 5748 5747 5746 5745 5744 5743 5742 5741 5741 5740 5740 5740 5739 5739 5738 5738 5737 5737 5736 5735 5735
5760 5760 5760 5759 5759 5759 5758 5758 5758 5757 5756 5755 5754 5753 5752 5751 5749 5748 5746 5745 5744 5742 5741 5740 5739 5737 5736 5735 5734 5734 5733 5732 5732 5731 5730 5730 5729 5729 5728 5727 5726 5725 5725
5752 5752 5752 5752 5752 5752 5751 5751 5750 5750 5749 5748 5747 5746 5745 5744 5742 5740 5739 5737 5736 5735 5733 5732 5731 5730 5728 5727 5726 5725 5724 5723 5722 5722 5721 5720 5719 5719 5718 5717 5717 5716 5716
5745 5745 5745 5744 5744 5744 5743 5743 5743 5742 5741 5740 5739 5738 5737 5736 5734 5733 5731 5730 5728 5727 5726 5724 5723 5722 5720 5719 5718 5717 5716 5714 5713 5712 5711 5710 5709 5708 5707 5707 5707 5706 5706
5737 5736 5736 5736 5736 5736 5735 5734 5734 5734 5733 5732 5731 5730 5729 5728 5726 5724 5723 5721 5720 5719 5718 5716 5715 5713 5711 5709 5708 5707 5706 5705 5704 5703 5702 5700 5699 5698 5696 5696 5696 5696 5696
5727 5727 5727 5727 5727 5726 5726 5726 5725 5725 5724 5724 5723 5722 5720 5719 5717 5715 5714 5713 5712 5711 5709 5708 5706 5704 5702 5700 5699 5698 5696 5695 5694 5693 5692 5690 5689 5687 5686 5685 5685 5685 5685
5718 5718 5717 5717 5717 5717 5717 5717 5716 5716 5715 5715 5714 5713 5711 5710 5708 5707 5705 5704 5703 5702 5701 5699 5697 5695 5693 5692 5690 5689 5687 5686 5684 5683 5681 5680 5678 5677 5676 5675 5674 5674 5674
5708 5708 5708 5707 5708 5707 5707 5707 5707 5706 5706 5705 5704 5703 5702 5701 5699 5698 5696 5695 5694 5693 5691 5690 5688 5686 5685 5683 5681 5679 5678 5676 5674 5673 5671 5670 5668 5667 5665 5665 5664 5663 5663
5698 5698 5698 5698 5698 5698 5698 5697 5697 5696 5695 5695 5694 5694 5693 5691 5690 5688 5687 5686 5684 5683 5682 5680 5679 5677 5675 5673 5672 5670 5668 5666 5664 5663 5661 5659 5658 5656 5656 5655 5654 5654 5654
5687 5688 5688 5688 5688 5688 5687 5687 5686 5686 5685 5685 5684 5683 5682 5681 5680 5679 5677 5676 5675 5673 5672 5671 5669 5667 5666 5664 5662 5660 5658 5656 5654 5652 5651 5649 5648 5646 5645 5645 5644 5644 5644
5677 5677 5677 5677 5677 5677 5677 5677 5676 5675 5675 5674 5673 5672 5672 5671 5670 5669 5668 5667 5665 5664 5662 5661 5659 5657 5656 5654 5652 5651 5649 5647 5644 5642 5641 5639 5638 5637 5636 5635 5635 5635 5635
5666 5666 5666 5666 5666 5666 5666 5666 5666 5665 5664 5664 5663 5662 5661 5660 5660 5659 5658 5657 5656 5654 5653 5651 5649 5648 5646 5644 5642 5641 5639 5637 5635 5633 5631 5629 5628 5627 5626 5626 5626 5626 5627
5655 5655 5655 5655 5655 5655 5655 5655 5655 5655 5654 5653 5653 5652 5651 5650 5650 5649 5648 5647 5646 5644 5643 5641 5640 5638 5636 5634 5632 5630 5629 5627 5625 5623 5622 5620 5619 5618 5617 5617 5617 5618 5618
5644 5644 5644 5644 5644 5644 5644 5644 5644 5644 5644 5643 5642 5641 5640 5640 5639 5638 5638 5637 5636 5635 5633 5632 5630 5629 5627 5625 5623 5621 5619 5617 5615 5614 5612 5611 5610 5609 5608 5609 5609 5609 5610
5633 5632 5632 5632 5632 5633 5633 5633 5633 5633 5633 5632 5632 5631 5630 5630 5629 5629 5628 5627 5626 5625 5624 5622 5621 5620 5618 5616 5614 5612 5610 5608 5606 5605 5604 5603 5601 5601 5600 5600 5601 5601 5602
5621 5621 5621 5621 5622 5622 5622 5623 5623 5623 5622 5622 5621 5621 5620 5620 5619 5619 5618 5617 5616 5615 5614 5613 5612 5610 5609 5607 5605 5603 5601 5599 5598 5597 5595 5595 5594 5593 5592 5592 5593 5593 5594
5610 5610 5610 5611 5611 5611 5612 5612 5612 5612 5612 5611 5611 5610 5610 5610 5609 5609 5608 5608 5607 5606 5605 5604 5603 5601 5600 5598 5596 5594 5592 5590 5589 5588 5587 5586 5586 5585 5585 5585 5585 5585 5586
5598 5599 5599 5599 5600 5600 5601 5601 5601 5601 5601 5601 5601 5601 5600 5600 5600 5599 5599 5598 5598 5597 5596 5594 5593 5592 5590 5588 5586 5584 5583 5582 5581 5580 5579 5578 5578 5577 5577 5577 5577 5577 5578
5588 5588 5588 5588 5588 5589 5589 5590 5590 5591 5591 5591 5591 5591 5591 5590 5590 5590 5590 5589 5588 5587 5586 5585 5584 5582 5581 5579 5577 5575 5574 5573 5572 5571 5571 5570 5570 5569 5569 5569 5569 5570 5570
5578 5578 5578 5578 5579 5579 5579 5580 5580 5580 5581 5581 5581 5581 5581 5581 5581 5580 5580 5580 5579 5578 5576 5575 5574 5573 5571 5570 5568 5567 5565 5564 5563 5563 5562 5562 5562 5561 5561 5561 5561 5562 5562
5569 5569 5569 5569 5569 5569 5569 5570 5570 5570 5571 5571 5571 5571 5571 5571 5571 5571 5571 5570 5569 5568 5567 5566 5565 5563 5562 5560 5559 5558 5557 5556 5555 5555 5554 5554 5554 5554 5553 5553 5554 5554 5554